STARLINK-1934 (46792 NORAD) Tracking and Keplerian Element Data

This shows tracking and keplerian element data for the satellite.

Feedback or suggestion? Click here.




ElementValue
Catalog46792
NameSTARLINK-1934
Epoch Orbit177
Epoch Day14.91667824
Epoch Year2021
RAAN117.4828
Inclination53.0544
Eccentricity0.0002884
Argument of Perigee309.6132
Mean Anonmoly227.4548
Mean Motion15.62794147
Decay Rate-0.00014953
L11 46792U 20074BF 21014.91667824 -.00014953 00000-0 -15747-3 0 9993
L22 46792 53.0544 117.4828 0002884 309.6132 227.4548 15.62794147 1771

Live tracking and technical data element details for STARLINK-1934 (NORAD 46792). STARLINK-1934 can be tracked NOW for your location showing map with azimuth and elevation plus other details from your city location.

Track the satellite on the map from your city or location and see movement details for azimuth, elevation, latitude, longitude, range, height, and movement on the map or in text.







IsCatalogInMostPopularTable: catalog: 46792, numindb: 26
Update: records affected: 1



GetName: 46792 STARLINK-1934

Hit Count: updated at: Fri, 15 Jan 2021 22:56:31 GMT